[[{"header":{"parameterUnit":"m.s-1","parameterCategory":1,"la1":30.2991,"la2":30.254,"lo1":-89.0895,"lo2":-89.0444,"dy":0.0017,"dx":0.0017,"nx":28,"ny":28,"refTime":"2025-09-11T09:00:00:Z","depth":0,"parameterNumber":2,"parameterNumberName":"U-component_of_WINDS"},"data":[0,0,0,0,0,0,0,0,0,0,0,0,0,0,0,0,0,0,0,0,0,0,0,0,0,0,0,0,0,0,0,0,0,0,0,0,0,0,0,0,0,0,0,0,0,0,0,0,0,0,0,0,0,0,0,0,0,0,-1.2099,-1.2098,0,-1.2024,-1.2023,-1.2022,-1.1984,-1.1983,-1.1983,-1.1983,-1.1906,-1.1904,-1.1902,0,0,0,0,0,0,0,0,0,0,0,0,0,-1.221,-1.2209,-1.2099,-1.2098,-1.2097,-1.2024,-1.2023,-1.2022,-1.1984,-1.1983,-1.1983,-1.1983,-1.1907,-1.1904,-1.1902,0,0,0,0,0,0,0,0,0,0,0,0,0,-1.2151,-1.2208,-1.2099,-1.2069,-1.2066,-1.2024,-1.2023,-1.2022,-1.1984,-1.1983,-1.1983,-1.1983,-1.1907,-1.1905,-1.1902,-1.1884,0,0,-1.1892,-1.1891,0,0,0,0,0,0,0,0,-1.2155,-1.2147,-1.2075,-1.2071,-1.2067,-1.2013,-1.2034,-1.1975,-1.1984,-1.2015,-1.1983,-1.1983,-1.1942,-1.1936,-1.1922,-1.188,-1.1877,-1.1892,-1.189,-1.1889,-1.1888,0,0,0,0,0,0,0,-1.2159,-1.215,-1.2069,-1.2074,-1.2069,-1.206,-1.2051,-1.2023,-1.1979,-1.2012,-1.2009,-1.2001,-1.194,-1.1925,-1.192,-1.1876,-1.1892,-1.1889,-1.1887,-1.1886,-1.1818,-1.1818,0,0,0,0,0,0,-1.2168,-1.2154,-1.2072,-1.2067,-1.2112,-1.2058,-1.2048,-1.2031,-1.198,-1.1972,-1.2001,-1.1999,-1.193,-1.1923,-1.1917,-1.1894,-1.1889,-1.1886,-1.1884,-1.1818,-1.1818,-1.1818,0,0,0,0,0,0,-1.217,-1.2161,-1.2075,-1.211,-1.2098,-1.2056,-1.2036,-1.2029,-1.2014,-1.1971,-1.1963,-1.1994,-1.193,-1.1921,-1.1893,-1.189,-1.1885,-1.1882,-1.1818,-1.1818,-1.1818,-1.1847,0,0,0,0,0,0,-1.2174,-1.2162,-1.2155,-1.211,-1.2096,-1.2052,-1.2036,-1.2028,-1.2009,-1.2006,-1.1962,-1.1955,-1.1929,-1.1898,-1.189,-1.1886,-1.1879,-1.1818,-1.1818,-1.1818,-1.1846,-1.1848,-1.185,0,0,0,0,0,-1.2178,-1.2165,-1.2154,-1.2145,-1.2086,-1.2052,-1.2044,-1.2014,-1.2009,-1.2001,-1.1974,-1.1956,-1.1892,-1.1895,-1.1886,-1.1881,-1.1818,-1.1818,-1.1818,-1.1845,-1.1848,-1.185,0,0,0,0,0,0,-1.221,-1.2159,-1.2146,-1.2119,-1.209,-1.2045,-1.2034,-1.2018,-1.199,-1.1988,-1.1953,-1.1943,-1.1918,-1.1897,-1.1901,-1.1863,-1.1853,-1.1852,-1.1877,-1.1879,-1.1881,-1.1887,-1.1877,0,0,0,0,0,-1.2214,-1.219,-1.2147,-1.2127,-1.2113,-1.2077,-1.206,-1.204,-1.2009,-1.1997,-1.1967,-1.1938,-1.1911,-1.1894,-1.1867,-1.1843,-1.1834,-1.1836,-1.1838,-1.1839,-1.1838,-1.1826,-1.1826,-1.1818,-1.1818,-1.1818,0,0,-1.2222,-1.2191,-1.2178,-1.2133,-1.2108,-1.2085,-1.2066,-1.2042,-1.2024,-1.1993,-1.1964,-1.1942,-1.1907,-1.1881,-1.1868,-1.1863,-1.1839,-1.1839,-1.1841,-1.1839,-1.1826,-1.1827,-1.1827,-1.1818,-1.1818,-1.1818,0,0,-1.2224,-1.2198,-1.2179,-1.2156,-1.2119,-1.2095,-1.2091,-1.2049,-1.2033,-1.2004,-1.198,-1.1959,-1.1913,-1.189,-1.1872,-1.1867,-1.185,-1.186,-1.1869,-1.1857,-1.1858,-1.1858,-1.1858,-1.1858,-1.1859,-1.1859,-1.1859,0,-1.2239,-1.2202,-1.2172,-1.2149,-1.213,-1.2102,-1.2083,-1.2061,-1.2017,-1.2005,-1.1999,-1.1943,-1.1917,-1.1886,-1.1885,-1.1871,-1.1866,-1.1864,-1.186,-1.186,-1.186,-1.1859,-1.1859,-1.186,-1.186,-1.186,-1.186,0,-1.2222,-1.2198,-1.2187,-1.2146,-1.2126,-1.2105,-1.2072,-1.2056,-1.2038,-1.2015,-1.1987,-1.1956,-1.1922,-1.1914,-1.1895,-1.1881,-1.1878,-1.1867,-1.1857,-1.1863,-1.1862,-1.1861,-1.1862,-1.1862,-1.1861,-1.1861,0,0,-1.2241,-1.2185,-1.2182,-1.2164,-1.2122,-1.2103,-1.2081,-1.2049,-1.2036,-1.2008,-1.199,-1.1953,-1.1942,-1.1922,-1.1902,-1.1891,-1.1892,-1.1881,-1.188,-1.1885,-1.1875,-1.1884,-1.1884,-1.188,-1.188,-1.188,-1.1878,0,-1.2238,-1.2198,-1.2171,-1.2142,-1.212,-1.2093,-1.2075,-1.2048,-1.2026,-1.2004,-1.198,-1.1955,-1.1943,-1.1931,-1.192,-1.1894,-1.1889,-1.1894,-1.1864,-1.1863,-1.1873,-1.1883,-1.1892,-1.1891,-1.1877,-1.1877,-1.1877,0,-1.2228,-1.2202,-1.2171,-1.2133,-1.2123,-1.2107,-1.2076,-1.2055,-1.2024,-1.201,-1.1988,-1.1968,-1.1945,-1.1938,-1.1907,-1.191,-1.1897,-1.1883,-1.1882,-1.1878,-1.187,-1.188,-1.189,-1.189,-1.1875,-1.1876,-1.1876,0,-1.2246,-1.2202,-1.2179,-1.2164,-1.2119,-1.2109,-1.209,-1.2059,-1.2042,-1.2015,-1.2004,-1.1975,-1.196,-1.1938,-1.1911,-1.1908,-1.1883,-1.1873,-1.1871,-1.1872,-1.1867,-1.1867,-1.1876,-1.1858,-1.1858,-1.1858,-1.1858,0,-1.2245,-1.2228,-1.2186,-1.2172,-1.2152,-1.2121,-1.2102,-1.2081,-1.2054,-1.2036,-1.2011,-1.1994,-1.1959,-1.1938,-1.1917,-1.1895,-1.1888,-1.1876,-1.1871,-1.1878,-1.188,-1.1869,-1.1868,-1.1858,-1.1858,-1.1858,-1.1858,0,-1.2261,-1.2233,-1.2205,-1.2166,-1.2156,-1.2143,-1.2109,-1.2095,-1.2073,-1.205,-1.2042,-1.2008,-1.1982,-1.1953,-1.1918,-1.1903,-1.1884,-1.1875,-1.1894,-1.1891,-1.1891,-1.1892,-1.1892,-1.1892,-1.1874,-1.1874,-1.1874,0,-1.2263,-1.2249,-1.2208,-1.2194,-1.2176,-1.2154,-1.2137,-1.2107,-1.209,-1.2056,-1.2046,-1.2018,-1.1995,-1.1956,-1.1928,-1.1901,-1.1892,-1.1895,-1.1888,-1.1897,-1.1893,-1.1895,-1.1894,-1.1896,-1.1897,-1.1897,-1.1897,0,-1.2268,-1.2255,-1.2232,-1.2204,-1.2185,-1.2161,-1.2137,-1.2127,-1.2092,-1.2075,-1.2049,-1.2031,-1.1996,-1.197,-1.194,-1.1921,-1.1904,-1.19,-1.1898,-1.1906,-1.1917,-1.1912,-1.19,-1.19,-1.1899,-1.1899,-1.1899,-1.1899,-1.2277,-1.2264,-1.2234,-1.2209,-1.2188,-1.2166,-1.2151,-1.2128,-1.2106,-1.2075,-1.2059,-1.2034,-1.2005,-1.1964,-1.1946,-1.1926,-1.192,-1.1917,-1.1916,-1.1916,-1.1919,-1.1921,-1.192,-1.192,-1.192,-1.192,-1.192,0,-1.2282,-1.2262,-1.2239,-1.2207,-1.2188,-1.2174,-1.2147,-1.2132,-1.211,-1.2085,-1.2063,-1.2034,-1.2009,-1.198,-1.1953,-1.1943,-1.1935,-1.1937,-1.1938,-1.1934,-1.1925,-1.193,-1.1945,-1.1945,-1.1945,-1.1945,-1.1945,-1.1945,-1.2282,-1.226,-1.2244,-1.2211,-1.2191,-1.2166,-1.2152,-1.2133,-1.2113,-1.2082,-1.2061,-1.2043,-1.2016,-1.1988,-1.1965,-1.1957,-1.1949,-1.1954,-1.1944,-1.1936,-1.1934,-1.1932,-1.1936,-1.1952,-1.1952,-1.1954,-1.1954,-1.1955]},{"header":{"parameterUnit":"m.s-1","parameterCategory":1,"la1":30.2991,"la2":30.254,"lo1":-89.0895,"lo2":-89.0444,"dy":0.0017,"dx":0.0017,"nx":28,"ny":28,"refTime":"2025-09-11T09:00:00:Z","depth":0,"parameterNumber":3,"parameterNumberName":"V-component_of_WINDS"},"data":[0,0,0,0,0,0,0,0,0,0,0,0,0,0,0,0,0,0,0,0,0,0,0,0,0,0,0,0,0,0,0,0,0,0,0,0,0,0,0,0,0,0,0,0,0,0,0,0,0,0,0,0,0,0,0,0,0,0,0.5612,0.5612,0,0.564,0.564,0.564,0.5628,0.5627,0.5626,0.5626,0.5652,0.5653,0.5655,0,0,0,0,0,0,0,0,0,0,0,0,0,0.5546,0.5547,0.5612,0.5612,0.5613,0.564,0.564,0.564,0.5628,0.5627,0.5626,0.5625,0.5652,0.5653,0.5655,0,0,0,0,0,0,0,0,0,0,0,0,0,0.5574,0.5548,0.5612,0.561,0.561,0.564,0.564,0.564,0.5628,0.5627,0.5626,0.5625,0.5651,0.5653,0.5655,0.5688,0,0,0.5661,0.5662,0,0,0,0,0,0,0,0,0.5573,0.5577,0.561,0.561,0.561,0.5629,0.5626,0.5656,0.5628,0.5621,0.5626,0.5625,0.5645,0.5648,0.5655,0.5689,0.569,0.5661,0.5663,0.5663,0.5664,0,0,0,0,0,0,0,0.5571,0.5575,0.5623,0.561,0.5611,0.5607,0.5609,0.5632,0.5638,0.5622,0.5621,0.5624,0.5645,0.5653,0.5656,0.5691,0.5661,0.5663,0.5664,0.5665,0.575,0.5751,0,0,0,0,0,0,0.5569,0.5574,0.5622,0.5624,0.5589,0.5609,0.5612,0.5624,0.5638,0.5639,0.5625,0.5624,0.565,0.5653,0.5656,0.5693,0.5663,0.5665,0.5666,0.5749,0.575,0.5751,0,0,0,0,0,0,0.5568,0.5573,0.5621,0.5599,0.5604,0.5611,0.5625,0.5625,0.5633,0.5641,0.5642,0.5632,0.5649,0.5654,0.568,0.5694,0.5666,0.5668,0.5747,0.5749,0.5751,0.5769,0,0,0,0,0,0,0.5566,0.5573,0.5586,0.5599,0.5606,0.5645,0.5626,0.5627,0.5637,0.5635,0.5648,0.5649,0.5649,0.5677,0.5682,0.5696,0.567,0.5746,0.5748,0.575,0.5767,0.5771,0.5774,0,0,0,0,0,0.5564,0.5591,0.5587,0.5593,0.5622,0.5646,0.5649,0.5649,0.5638,0.5651,0.5655,0.5648,0.5692,0.5679,0.5685,0.57,0.5745,0.5748,0.575,0.5765,0.577,0.5774,0,0,0,0,0,0,0.558,0.5592,0.5589,0.5621,0.5632,0.5643,0.5659,0.5655,0.5669,0.5667,0.5666,0.5669,0.5695,0.5701,0.5686,0.5731,0.5717,0.572,0.5726,0.5731,0.5735,0.5732,0.5671,0,0,0,0,0,0.5587,0.5605,0.5615,0.5643,0.5649,0.5653,0.5663,0.5662,0.5674,0.5678,0.5685,0.5696,0.5711,0.5722,0.5737,0.5768,0.5769,0.5781,0.5785,0.5788,0.579,0.5804,0.5809,0.5759,0.5759,0.5759,0,0,0.5602,0.5611,0.5623,0.5646,0.5655,0.5672,0.5657,0.5677,0.569,0.5681,0.5705,0.5711,0.5722,0.575,0.5763,0.5756,0.5805,0.5791,0.5793,0.5794,0.5807,0.5812,0.5816,0.576,0.576,0.576,0,0,0.5638,0.5648,0.5671,0.5679,0.5693,0.5695,0.5701,0.5713,0.5715,0.574,0.5733,0.5748,0.5776,0.5784,0.5791,0.5829,0.5822,0.5834,0.5852,0.5866,0.587,0.5873,0.5884,0.5888,0.5837,0.5837,0.5837,0,0.5655,0.5682,0.5683,0.5703,0.5712,0.5705,0.5727,0.5735,0.5753,0.5759,0.5751,0.5784,0.5792,0.582,0.5829,0.5836,0.5841,0.5832,0.5869,0.5873,0.5876,0.5886,0.5891,0.5838,0.5838,0.5838,0.5838,0,0.5701,0.572,0.5736,0.5752,0.5764,0.5785,0.5787,0.5799,0.5796,0.5799,0.5823,0.5832,0.5848,0.5855,0.5853,0.5882,0.5877,0.5869,0.5854,0.5882,0.5891,0.5895,0.584,0.5839,0.5839,0.5839,0,0,0.5747,0.5763,0.5769,0.5775,0.5789,0.5803,0.5822,0.5838,0.5846,0.5859,0.5873,0.5897,0.5889,0.5898,0.5897,0.5909,0.5935,0.59,0.59,0.5904,0.5965,0.5969,0.5973,0.5931,0.5932,0.5933,0.5963,0,0.5782,0.5817,0.5817,0.5848,0.5864,0.5858,0.5874,0.5884,0.5887,0.59,0.5904,0.5919,0.5909,0.5914,0.5926,0.5929,0.5947,0.5928,0.5943,0.5944,0.5938,0.5979,0.5984,0.6011,0.5967,0.5967,0.5968,0,0.5827,0.584,0.5873,0.5882,0.5889,0.5904,0.5917,0.593,0.594,0.5942,0.5951,0.5948,0.5966,0.5952,0.5976,0.5962,0.5969,0.5972,0.5973,0.5973,0.5956,0.5977,0.6021,0.6024,0.5974,0.5974,0.5973,0,0.5854,0.588,0.5902,0.5908,0.592,0.5931,0.5936,0.5945,0.5954,0.5965,0.597,0.5984,0.5991,0.6001,0.6001,0.5991,0.6024,0.6011,0.6024,0.6024,0.603,0.6029,0.6072,0.6038,0.6038,0.6038,0.6038,0,0.5891,0.5911,0.5914,0.5927,0.5949,0.5949,0.5969,0.5974,0.5982,0.5995,0.5991,0.6003,0.6003,0.6015,0.6016,0.6034,0.6038,0.6038,0.6037,0.6037,0.6037,0.604,0.6037,0.6039,0.6039,0.6038,0.6038,0,0.5924,0.5927,0.5951,0.596,0.5963,0.5978,0.5985,0.5997,0.6,0.6017,0.6021,0.6024,0.6038,0.604,0.6056,0.6056,0.6078,0.6076,0.6074,0.6073,0.6086,0.6084,0.6131,0.6136,0.61,0.6101,0.6101,0,0.5946,0.5961,0.5972,0.5981,0.5987,0.6001,0.6009,0.601,0.6019,0.603,0.6041,0.6054,0.6065,0.6087,0.6091,0.6103,0.61,0.6116,0.6102,0.6101,0.6098,0.6096,0.6096,0.6118,0.6118,0.6119,0.6119,0,0.5985,0.5986,0.5998,0.6011,0.6022,0.6032,0.6041,0.6049,0.605,0.606,0.6074,0.6083,0.6099,0.6112,0.6124,0.6128,0.6123,0.6124,0.6127,0.6126,0.6123,0.6122,0.6079,0.6122,0.6122,0.6122,0.6121,0.6121,0.6012,0.6023,0.6032,0.6046,0.6054,0.6062,0.6073,0.6077,0.609,0.6103,0.6103,0.6118,0.6126,0.6141,0.6146,0.6157,0.6152,0.6157,0.6158,0.6159,0.6159,0.6123,0.6159,0.6159,0.6159,0.6159,0.6159,0,0.6048,0.6053,0.6066,0.6079,0.6089,0.6085,0.6095,0.6104,0.6117,0.6125,0.6136,0.6151,0.6164,0.6168,0.618,0.6187,0.6185,0.619,0.6189,0.6189,0.6164,0.6159,0.6192,0.6192,0.6192,0.6192,0.6192,0.6192,0.6067,0.6087,0.6088,0.611,0.6115,0.613,0.6136,0.6143,0.615,0.6167,0.6177,0.6181,0.6187,0.6199,0.6209,0.621,0.6213,0.6219,0.6219,0.6195,0.6191,0.6188,0.6183,0.622,0.622,0.6242,0.6243,0.6243]}]]